Location: Vihti�l�
(61.3833°N, 23.0667°E)
Time: 05:52:00
(UTC+00:00)

Cosmos 2082 Rocket - Pass Details

Date: 29 November 2020
Orbit: 831 x 855 km, 71.0° (Epoch: 22 January)

Event Time Altitude Azimuth Distance (km) Brightness Sun altitude
Exits shadow 01:33:30 27° 33° (NNE) 1,585 4.0 -37.8°
Drops below altitude 10° 01:36:54 10° 65° (ENE) 2,486 5.4 -37.4°
Sets 01:39:39 0° 75° (ENE) 3,425 6.3 -37.1°
